Find Starlink 5406

NORAD ID: 54860 Int'l Des: 2022-177 Owner: SPXS Country: US Constellation: starlink operational
LEOCIRCULAR

实时位置

正在加载3D地球...

关于 Starlink 5406

正在加载描述...

即将过境

Passes for default location (London). Set your location on the main map for personalized predictions.

高度历史

Loading altitude history...

两行轨道根数

1 54860U 22177AS 26104.86662838 .00003932 00000-0 15614-3 0 9999
2 54860 43.0035 277.2513 0001165 274.0641 86.0077 15.26752348182624
Epoch: Apr 14, 2026 • Age: 7 hours

当前状态

高度 498.1 km
速度 7.62 km/s
星下点 -43.16°S, 81.32°W
发射日期 Dec 28, 2022
运行时间 3.2 years
类型 internet

技术详情

分类 Payload
质量 305.00 kg
干质量 290.00 kg
总质量 305.00 kg
长度 0.20 m
直径 2.80 m
跨度 9.00 m
形状 Box + pan
制造商 SPXS
平台类型 Starlink
阶段状态 In Orbit
所有者/国家 SPXS/US

Most Searched